FENGYUN 1C DEB, 37457

Orbit data source: Space-Track

FENGYUN 1C DEB, 37457 is space debris in SSO originally from a launch on Mon, 10 May 1999 UTC launched from the Taiyaun Space Center, China (TSC). Fengyun 1C debris stems from the Chinese weather satellite Fengyun-1C, which was intentionally destroyed by a Chinese anti-satellite missile in 2007. This event dramatically increased the amount of space debris, with thousands of trackable fragments posing hazards to satellites and human spaceflight. The Fengyun 1C debris cloud has become a focal point in discussions about space sustainability and the need for international regulations to prevent the creation of new debris.

Loading next visibility...
Identifier
37457, 1999-025EJB
Orbit
SSO
Country
Flag of CNCN / PRC
Related business
Manufacturer
Unknown
Mission
Spacecraft
Bus & Motor
Unknown
Mass
Unknown
Launch date (UTC)
1999-05-10 (27 years ago)
Launch vehicle
Unknown
Launch site
Taiyaun Space Center, China (TSC)
Object type
Payload
Rocket body
Debris
Shape & HBR
Unknown shape, 1.1 m
Radar Cross Section
Medium (>0.1 m² and <1 m²)

Expand to show TLE details & history
Last TLE update: 1 day ago

TLE from 1 day ago
0 FENGYUN 1C DEB
1 37457U 99025EJB 26207.02603453  .00004346  00000-0  18613-2 0  9999
2 37457  99.0915 287.8246 0063678 148.7545 211.7442 14.24314717632761
Epoch: 2026-07-26T00:37Z
TLE epoch observation values (Epoch: 2026-07-26T00:37:29.383Z)
Latitude
-0.00003°
Longitude
-25.2777°
Altitude
852.723 km
Speed
7.406 km/s
True Right ascension
19h 11m 17s
True Declination
0° 00' 00"
Sunlit
Object was in full shadow at epoch
Visualization orbit readout
Latitude
Unknown
Longitude
Unknown
Altitude
Unknown
Speed
Unknown
Apparent Right ascension
Unknown
Apparent Declination
Unknown
Sunlit
N/A
Visualization observer readout
Local Sidereal Time
18:31:30
Azimuth
Unknown
Elevation
Unknown
Doppler factor
Unknown
Orbital elements
Apogee altitude
853.729 km
Perigee altitude
762.209 km
Semi-major axis
7,186.106 km
Eccentricity
0.00637
Inclination
99.0915°
RAAN
287.8246°
Arg. of periapsis
148.7545°
True anomaly
211.36287°
Mean anomaly
211.7442°
Eccentric anomaly
211.55328°
Mean motion
3.56289 °/min
Orbital period
101.04 mins
BSTAR
0.0018613
Loading maneuver chart data...
Computing Atmospheric mass density...
Loading historical data...
Loading historical data...
Loading historical data...
Loading historical data...
Loading historical data...
Loading historical data...
Loading historical data...

Documentation

Showing up to 5 results
|